Location: Bermeries
(50.2863°N, 3.7551°E)
Time: 01:40:40
(UTC+00:00)

Cosmos 2333 Rocket - Pass Details

Date: 23 May 2024
Orbit: 838 x 863 km, 70.8° (Epoch: 17 June)

Event Time Altitude Azimuth Distance (km) Brightness Sun altitude
Rises 00:45:13 0° 332° (NNW) 3,422 6.1 -17.7°
Reaches altitude 10° 00:47:57 10° 342° (NNW) 2,487 5.5 -17.6°
Maximum altitude 00:53:03 32° 46° (NE) 1,422 4.0 -17.3°
Drops below altitude 10° 00:58:09 10° 109° (ESE) 2,491 4.6 -17.1°
Sets 01:00:53 0° 119° (ESE) 3,427 5.3 -16.9°
